User: anonymous   Login
Location: Oshawa
(43.9000°N, 78.8670°W)
Time: 03:02:41
(UTC-04:00)
Language:

Cosmos 1500 - Orbit

View from above orbital plane
View from above orbital plane
View from above satellite
View from above satellite

Ground track
Ground track

The orbit data is extracted from the following two-line orbital elements,

1 14372U 83099A   16269.42358189  .00001641  00000-0  81565-4 0  9991
2 14372  82.5138 245.1007 0014042 288.3246 233.7456 15.16889906797656
Epoch (UTC): 25 September 2016 10:09:57
Eccentricity: 0.0014042
inclination: 82.5138°
perigee height: 505 km
apogee height: 525 km
right ascension of ascending node: 245.1007°
argument of perigee: 288.3246°
revolutions per day: 15.16889906
mean anomaly at epoch: 233.7456°
orbit number at epoch: 79765

The dashed part of the orbit path shows where the satellite is in the earth's shadow,  

DLR